Погода в Расшеватской

Россия / Ставропольский край     45°34′19″N   41°01′57″E
темп.,
°C
ветер,
м/с
пор.,
м/с
влажн.,
%
обл.,
%
осадки,
мм/ч
давл.,
гПа
погр.,
м
13 мая, чт
чт1300:00+12в46860 0.0 101389
03:00+11вюв47830 0.0 1013108
06:00+10ююв34870 0.0 101390
09:00+17ю22700 0.0 1013324
12:00+22в23565 0.0 1013765
15:00+24в4555100 0.0 1013978
18:00+22в4875100 0.0 1012184
21:00+18вюв4128183 0.0 1013222
14 мая, пт
пт1400:00+16вюв412795 0.0 1012187
03:00+14вюв48810 0.0 1011110
06:00+15юв33850 0.0 101257
09:00+22в34687 0.0 1011282
12:00+27в45575 0.0 1010483
15:00+29всв46581 0.0 1010731
18:00+26в377512 0.0 1010178
21:00+21вюв3486100 0.0 101044
15 мая, сб
сб1500:00+19юз1186100 0.0 101011
03:00+17ююз339247 0.0 101139
06:00+18зюз369716 0.0 1012174
09:00+22ссз348483 0.0 1013591
12:00+26сз237024 0.0 10131050
15:00+27с33625 0.1 10121348
18:00+25св357767 0.0 1012228
21:00+21всв2286100 0.0 101218
16 мая, вс
вс1600:00+19св3486100 0.0 101062
03:00+17всв33875 0.0 101036
06:00+18в2386100 0.1 101077
09:00+23св237071 0.1 1009420
12:00+25всв44628 0.0 1008788
15:00+27в56596 0.0 10071155
18:00+25в3773100 0.0 1005202
21:00+20в51170100 0.0 1005182
17 мая, пн
пн1700:00+17в5126087 0.0 1005235
03:00+15в496498 0.0 1005161
06:00+15в47770 0.0 1005122
09:00+22вюв23655 0.0 1005387
12:00+26св226130 0.0 1005856
15:00+27ссв336088 0.0 10051086
18:00+22з4982100 0.1 1007208
21:00+20сз5984100 0.4 1006197